Location: Charlottesville
(38.0290°N, 78.4770°W)
Time: 21:25:35
(UTC-04:00)

ISS - Pass Details

Date: 11 October 2017
Orbit: 401 x 408 km, 51.6° (Epoch: 21 October)

Event Time Altitude Azimuth Distance (km) Brightness Sun altitude
Rises 20:26:19 0° 314° (NW) 2,326 0.9 -21.4°
Reaches altitude 10° 20:28:28 10° 321° (NW) 1,465 -0.4 -21.8°
Enters shadow 20:30:27 29° 344° (NNW) 769 -2.3 -22.2°
